Benton Harbor, MI

10:14 AM EDT on August 25, 2016 (GMT -0400)
Southwest Michigan Regional

Weather History for KBEH - December, 2012

Change the Weather History Date:

Monday, December 24, 2012

  Actual Average Record
Temperature  
Mean Temperature 28 °F -  
Max Temperature 33 °F 34 °F 58 °F (1982)
Min Temperature 24 °F 20 °F -7 °F (1989)
Degree Days  
Heating Degree Days 36    
Moisture  
Dew Point -    
Average Humidity    
Maximum Humidity    
Minimum Humidity    
Precipitation  
Precipitation 0.00 in - - ()
Sea Level Pressure  
Sea Level Pressure 29.94 in    
Wind  
Wind Speed 5 mph (ENE)    
Max Wind Speed 12 mph    
Max Gust Speed -    
Visibility 10 miles    
Events      
Averages and records for this station are not official NWS values.
T = Trace of Precipitation, MM = Missing Value Source: NWS Daily Summary

Daily Weather History Graph

Daily Weather History Graph

Search for Another Location

Airport or City:

Trip Planner

Search our weather history database for the weather conditions in past years. The results will help you decide how hot, cold, wet, or windy it might be!

Date:

Astronomy

Dec. 24, 2012 Rise Set
Actual Time 8:12 AM EST 5:18 PM EST
Civil Twilight 7:40 AM EST 5:50 PM EST
Nautical Twilight 7:05 AM EST 6:26 PM EST
Astronomical Twilight 6:31 AM EST 7:00 PM EST
Moon 2:47 PM EST (12/24) 4:48 AM EST (12/24)
Length of Visible Light 10h 10m
Length of Day
9h 06m
Waxing Gibbous, 88% of the Moon is Illuminated
Dec 24
Waxing Gibbous
Dec 28
Full
Jan 4
Last Quarter
Jan 11
New
Jan 18
First Quarter

Hourly Weather History & Observations

Time (EST) Temp. Windchill Dew Point Humidity Pressure Visibility Wind Dir Wind Speed Gust Speed Precip Events Conditions
12:53 AM 27.0 °F 21.6 °F - N/A% 30.01 in 10.0 mi East 4.6 mph - N/A   Clear
1:53 AM 24.1 °F - - N/A% 30.00 in 10.0 mi Calm Calm - N/A   Clear
2:53 AM 26.1 °F 20.5 °F - N/A% 29.98 in 10.0 mi East 4.6 mph - N/A   Clear
3:53 AM 26.1 °F 20.5 °F - N/A% 29.96 in 10.0 mi ENE 4.6 mph - N/A   Clear
4:53 AM 27.0 °F 18.7 °F - N/A% 29.94 in 10.0 mi East 8.1 mph - N/A   Clear
5:53 AM 27.0 °F 19.5 °F - N/A% 29.92 in 10.0 mi East 6.9 mph - N/A   Clear
6:53 AM 27.0 °F 18.7 °F - N/A% 29.90 in 10.0 mi East 8.1 mph - N/A   Clear
7:53 AM 26.1 °F 21.9 °F - N/A% 29.92 in 10.0 mi NE 3.5 mph - N/A   Clear
8:53 AM 26.1 °F 19.4 °F - N/A% 29.92 in 10.0 mi ENE 5.8 mph - N/A   Clear
9:53 AM 28.0 °F 21.7 °F - N/A% 29.93 in 10.0 mi NE 5.8 mph - N/A   Clear
10:53 AM 28.9 °F 19.2 °F - N/A% 29.89 in 10.0 mi East 11.5 mph - N/A   Clear
11:53 AM 30.0 °F 24.1 °F - N/A% 29.89 in 10.0 mi East 5.8 mph - N/A   Mostly Cloudy
12:53 PM 30.9 °F 25.2 °F - N/A% 29.86 in 10.0 mi East 5.8 mph - N/A   Overcast
1:53 PM 33.1 °F 28.7 °F - N/A% 29.86 in 10.0 mi ENE 4.6 mph - N/A   Overcast
2:06 PM 33.8 °F 29.6 °F - N/A% 29.83 in 10.0 mi Variable 4.6 mph - N/A   Overcast
2:53 PM 33.1 °F 28.7 °F - N/A% 29.87 in 10.0 mi ENE 4.6 mph - N/A   Overcast
3:53 PM 33.1 °F 28.7 °F - N/A% 29.88 in 10.0 mi ENE 4.6 mph - N/A   Overcast
4:41 PM 32.0 °F 26.4 °F - N/A% 29.86 in 10.0 mi NE 5.8 mph - N/A   Overcast
4:53 PM 32.0 °F 27.5 °F - N/A% 29.89 in 10.0 mi NE 4.6 mph - N/A   Overcast
5:44 PM 30.2 °F 26.7 °F - N/A% 29.91 in 10.0 mi NE 3.5 mph - N/A   Overcast
5:53 PM 30.9 °F - - N/A% 29.94 in 10.0 mi Calm Calm - N/A   Overcast
6:40 PM 30.2 °F 25.4 °F - N/A% 29.93 in 10.0 mi ENE 4.6 mph - N/A   Overcast
6:53 PM 30.9 °F 26.2 °F - N/A% 29.96 in 10.0 mi Variable 4.6 mph - N/A   Overcast
7:53 PM 30.9 °F - - N/A% 29.99 in 10.0 mi Calm Calm - N/A   Overcast
8:53 PM 30.0 °F - - N/A% 30.01 in 10.0 mi Calm Calm - N/A   Overcast
9:53 PM 30.0 °F - - N/A% 30.04 in 10.0 mi Calm Calm - N/A   Overcast
10:53 PM 28.9 °F 25.2 °F - N/A% 30.05 in 10.0 mi NE 3.5 mph - N/A   Mostly Cloudy
11:46 PM 26.6 °F 22.6 °F - N/A% 30.05 in 9.0 mi ENE 3.5 mph - N/A   Mostly Cloudy
11:53 PM 27.0 °F 21.6 °F - N/A% 30.07 in 9.0 mi ENE 4.6 mph - N/A   Mostly Cloudy